Inquirer Daily News

Weather

Get conditions and forecasts for any City, State, ZIP code or Country:  
Trenton, NJ
on Friday, January 25, 2013

Friday
Previous Day Next Day
Daily Summary
 ActualAverageRecord
Temperature
Mean Temperature °F 31°F  
Max Temperature 22°F 39°F 64°F (1967)
Min Temperature 10°F 23°F 0°F (1945)
Degree Days
Heating Degree Days 49 34  
Month to date heating degree days 772 849  
Since 1 July heating degree days 2530 2744  
Cooling Degree Days 0 0  
Month to date cooling degree days 0 0  
Year to date cooling degree days 0 0  
Moisture
Dew Point 7°F   
Average Humidity 67    
Maximum Humidity 92    
Minimum Humidity 41    
Precipitation
Precipitation 0.06 in 0.11 in 1.62 in (2010)
Month to date precipitation 1.70 2.56  
Year to date precipitation 1.70 2.56  
Wind
Wind Speed 5 mph   
Max Wind Speed 18 mph   
Max Gust Speed 24 mph   
Visibility 6 miles   
Events Snow   

Key: T is trace of precipitation, MM is missing value
Source: NWS Daily Summary
Time(EST)TemperatureDew PointHumidity Pressure Visibility Wind DirectionWind SpeedGust SpeedPrecipitationEvents Conditions
12:53 AM 16.0°F -2.0°F 45% 30.43 in 10.0 miles North 10.4 mph - N/A   Clear
1:53 AM 15.1°F -2.9°F 45% 30.43 in 10.0 miles NNW 11.5 mph 24.2 mph N/A   Clear
2:53 AM 15.1°F -2.9°F 45% 30.43 in 10.0 miles North 9.2 mph 19.6 mph N/A   Clear
3:53 AM 14.0°F -2.0°F 49% 30.44 in 10.0 miles WNW 6.9 mph - N/A   Clear
4:53 AM 12.9°F -0.9°F 54% 30.44 in 10.0 miles NW 6.9 mph - N/A   Clear
5:53 AM 12.9°F -0.0°F 56% 30.43 in 10.0 miles North 5.8 mph - N/A   Clear
6:53 AM 14.0°F -0.0°F 54% 30.41 in 10.0 miles North 5.8 mph - N/A   Clear
7:53 AM 14.0°F 1.0°F 56% 30.41 in 10.0 miles NW 6.9 mph - N/A   Clear
8:53 AM 15.1°F 1.0°F 54% 30.43 in 10.0 miles NW 10.4 mph - N/A   Clear
9:53 AM 17.1°F 1.9°F 52% 30.41 in 10.0 miles NW 4.6 mph - N/A   Clear
10:53 AM 18.0°F 1.9°F 50% 30.37 in 10.0 miles West 4.6 mph - N/A   Clear
11:53 AM 19.9°F 1.9°F 46% 30.33 in 10.0 miles Calm Calm - N/A   Mostly Cloudy
12:53 PM 19.9°F 1.9°F 46% 30.29 in 10.0 miles Variable 3.5 mph - N/A   Overcast
1:53 PM 21.9°F 3.0°F 44% 30.25 in 10.0 miles West 6.9 mph - N/A   Overcast
2:53 PM 21.9°F 1.9°F 42% 30.22 in 10.0 miles SW 6.9 mph - N/A   Overcast
3:53 PM 21.9°F 1.9°F 42% 30.20 in 10.0 miles SW 5.8 mph - N/A   Overcast
4:15 PM 19.4°F 8.6°F 63% 30.20 in 2.5 miles SW 6.9 mph - 0.00 in Snow Light Snow
4:25 PM 19.4°F 8.6°F 63% 30.20 in 5.0 miles WSW 4.6 mph - 0.00 in Snow Light Snow
4:39 PM 19.4°F 10.4°F 68% 30.18 in 1.8 miles SW 6.9 mph - 0.00 in Snow Light Snow
4:53 PM 19.0°F 12.9°F 77% 30.17 in 0.8 miles SSW 5.8 mph - 0.00 in Snow Light Snow
4:59 PM 19.4°F 14.0°F 80% 30.17 in 1.0 miles SW 5.8 mph - 0.00 in Snow Light Snow
5:18 PM 19.4°F 15.8°F 86% 30.16 in 0.8 miles SSW 4.6 mph - 0.01 in Snow Light Snow
5:22 PM 19.4°F 15.8°F 86% 30.15 in 1.0 miles SSW 4.6 mph - 0.01 in Snow Light Snow
5:33 PM 17.6°F 15.8°F 93% 30.15 in 2.0 miles SW 4.6 mph - 0.01 in Snow Light Snow
5:53 PM 18.0°F 14.0°F 84% 30.14 in 2.0 miles SW 4.6 mph - 0.01 in Snow Light Snow
6:03 PM 17.6°F 15.8°F 93% 30.14 in 1.2 miles SW 5.8 mph - 0.00 in Snow Light Snow
6:11 PM 17.6°F 15.8°F 93% 30.15 in 1.2 miles SW 5.8 mph - 0.01 in Snow Light Snow
6:42 PM 17.6°F 15.8°F 93% 30.14 in 1.8 miles WSW 3.5 mph - 0.02 in Snow Light Snow
6:53 PM 18.0°F 15.1°F 88% 30.13 in 2.0 miles WSW 3.5 mph - 0.02 in Snow Light Snow
7:31 PM 17.6°F 15.8°F 93% 30.13 in 3.0 miles Calm Calm - 0.00 in Snow Light Snow
7:53 PM 18.0°F 14.0°F 84% 30.12 in 4.0 miles SW 3.5 mph - 0.00 in Snow Light Snow
8:53 PM 14.0°F 12.0°F 92% 30.09 in 7.0 miles Calm Calm - 0.00 in   Mostly Cloudy
9:53 PM 12.9°F 10.9°F 92% 30.07 in 5.0 miles Calm Calm - N/A   Clear
10:53 PM 12.0°F 9.0°F 88% 30.06 in 3.0 miles NNW 3.5 mph - N/A   Clear
11:53 PM 10.9°F 9.0°F 92% 30.07 in 6.0 miles NNW 3.5 mph - N/A   Clear
Astronomy
Sunrise:07:14 AM (EST) Moon Rise:04:04 PM (EST)1/25
Sunset:05:09 PM (EST) Moon Set:05:52 AM (EST)1/25
Moon Phase
Jan. 25 Jan. 26 Feb. 03 Feb. 10 Feb. 17

Copyright © 2014 The Weather Underground, Inc.